Regional Weather Roundup
Issued by NWS

Home | Current Version | Previous Version | Graphics & Text | Print | Product List | Glossary On
Versions: 1 2 3 4 5 6 7 8 9 10 11 12 13 14 15 16 17 18 19 20 21 22 23 24 25 26 27 28 29 30 31 32 33 34 35 36 37 38 39 40 41 42 43 44 45 46 47 48 49 50
000
ASUS43 KLMK 171110
RWRKY
KENTUCKY REGIONAL WEATHER ROUNDUP
NATIONAL WEATHER SERVICE LOUISVILLE KY
600 AM EST TUE JAN 17 2017

NOTE "FAIR" INDICATES FEW OR NO CLOUDS BELOW 12,000 FEET
WITH NO SIGNIFICANT WEATHER AND/OR OBSTRUCTIONS TO VISIBILITY.

KYZ001>023-026-027-061>063-070>075-171200-
WESTERN AND SOUTH CENTRAL KENTUCKY

CITY           SKY/WX    TMP DP  RH WIND       PRES   REMARKS
PADUCAH        CLOUDY    59  54  83 W14       29.94R
HENDERSON      MOCLDY    59  54  82 SW12      29.91R
OWENSBORO      NOT AVBL
HOPKINSVILLE   DRIZZLE   63  63 100 SW10      29.95R
BOWLING GREEN  LGT RAIN  61  59  93 S13       29.96F FOG
GLASGOW        RAIN      60  60 100 S12G18    29.97F
$$

KYZ024-025-028>034-038-045-046-053-171200-
NORTH CENTRAL KENTUCKY

CITY           SKY/WX    TMP DP  RH WIND       PRES   REMARKS
LOUISVILLE/SDF CLOUDY    62  56  80 SW10G18   29.91S
LOUISVILLE/LOU CLOUDY    61  56  83 S10       29.92S
FORT KNOX      CLOUDY    60  59  99 S14G21    29.92R
$$

KYZ035>037-039>044-047>052-055>060-089>105-171200-
NORTHEAST KENTUCKY

CITY           SKY/WX    TMP DP  RH WIND       PRES   REMARKS
LEXINGTON      LGT RAIN  58  55  90 S14       29.96F
COVINGTON      CLOUDY    58  56  93 S16       29.89F
FRANKFORT      CLOUDY    60  55  83 S12       29.93F
$$

KYZ054-064>069-076>088-106>120-171200-
SOUTHEAST KENTUCKY

CITY           SKY/WX    TMP DP  RH WIND       PRES   REMARKS
JACKSON        LGT RAIN  56  54  93 S8        30.03F FOG
LONDON         LGT RAIN  57  54  89 S5        30.05F FOG
SOMERSET       RAIN      55  55 100 S6        30.04F
MIDDLESBORO    LGT RAIN  58  54  85 S9G17     30.09F
MONTICELLO     LGT RAIN  59  56  89 VRB3      30.04S
$$




USA.gov is the U.S. government's official web portal to all federal, state and local government web resources and services.